• In Moldova, Republic
  • List of Countries
  • For 7 days
  • Water Temperature
  • Satellite Maps
  • Weather Map
  • Weather Widgets
  • user-avatar
    Login

    Hourly Weather Sydney

    Today, 16 August, Wednesday

    Time Temperature Precipitation Wind Pressure Humidity
    00:00 +20°C° 0 mm 7 mps 751 mmHg 42%
    01:00 +18°C° 0 mm 7 mps 750 mmHg 42%
    02:00 +20°C° 0 mm 7 mps 750 mmHg 39%
    03:00 +21°C° 0 mm 7 mps 749 mmHg 35%
    04:00 +22°C° 0 mm 7 mps 747 mmHg 30%
    05:00 +22°C° 0 mm 7 mps 748 mmHg 30%
    06:00 +21°C° 0 mm 7 mps 748 mmHg 31%
    07:00 +21°C° 0 mm 7 mps 749 mmHg 32%
    08:00 +21°C° 0 mm 7 mps 749 mmHg 36%
    09:00 +22°C° 0 mm 8 mps 750 mmHg 40%
    10:00 +19°C° 0 mm 9 mps 751 mmHg 43%
    11:00 +21°C° 0 mm 9 mps 751 mmHg 40%
    12:00 +21°C° 0 mm 9 mps 751 mmHg 38%
    13:00 +21°C° 0 mm 9 mps 752 mmHg 35%
    14:00 +21°C° 0 mm 8 mps 752 mmHg 34%
    15:00 +21°C° 0 mm 7 mps 752 mmHg 34%
    16:00 +20°C° 0 mm 8 mps 752 mmHg 38%
    17:00 +18°C° 0 mm 7 mps 753 mmHg 41%
    18:00 +16°C° 0 mm 7 mps 754 mmHg 44%
    19:00 +15°C° 0 mm 6 mps 755 mmHg 47%
    20:00 +15°C° 0 mm 6 mps 755 mmHg 49%
    21:00 +14°C° 0 mm 5 mps 755 mmHg 51%
    22:00 +13°C° 0 mm 5 mps 756 mmHg 52%
    23:00 +13°C° 0 mm 4 mps 756 mmHg 54%

    Tomorrow, 17 August, Thursday

    Time Temperature Precipitation Wind Pressure Humidity
    00:00 +12°C° 0 mm 4 mps 756 mmHg 56%
    01:00 +12°C° 0 mm 3 mps 756 mmHg 57%
    02:00 +11°C° 0 mm 3 mps 756 mmHg 59%
    03:00 +11°C° 0 mm 3 mps 756 mmHg 61%
    04:00 +10°C° 0 mm 3 mps 756 mmHg 63%
    05:00 +10°C° 0 mm 3 mps 756 mmHg 64%
    06:00 +10°C° 0 mm 3 mps 756 mmHg 64%
    07:00 +10°C° 0 mm 3 mps 756 mmHg 64%
    08:00 +12°C° 0 mm 4 mps 756 mmHg 54%
    09:00 +15°C° 0 mm 4 mps 756 mmHg 44%
    10:00 +19°C° 0 mm 4 mps 756 mmHg 34%
    11:00 +20°C° 0 mm 4 mps 755 mmHg 30%
    12:00 +22°C° 0 mm 5 mps 755 mmHg 26%
    13:00 +23°C° 0 mm 5 mps 754 mmHg 23%
    14:00 +23°C° 0 mm 6 mps 754 mmHg 24%
    15:00 +22°C° 0 mm 6 mps 753 mmHg 26%
    16:00 +22°C° 0 mm 7 mps 753 mmHg 27%
    17:00 +20°C° 0 mm 7 mps 754 mmHg 31%
    18:00 +17°C° 0 mm 6 mps 754 mmHg 34%
    19:00 +16°C° 0 mm 6 mps 755 mmHg 38%
    20:00 +15°C° 0 mm 7 mps 755 mmHg 39%
    21:00 +15°C° 0 mm 8 mps 755 mmHg 40%
    22:00 +13°C° 0 mm 8 mps 756 mmHg 42%
    23:00 +13°C° 0 mm 8 mps 756 mmHg 44%

    Day after tomorrow, 18 August, Friday

    Time Temperature Precipitation Wind Pressure Humidity
    00:00 +12°C° 0 mm 8 mps 756 mmHg 46%
    01:00 +12°C° 0 mm 8 mps 756 mmHg 48%
    02:00 +12°C° 0 mm 9 mps 756 mmHg 51%
    03:00 +11°C° 0 mm 9 mps 756 mmHg 54%
    04:00 +11°C° 0 mm 9 mps 755 mmHg 57%
    05:00 +10°C° 0 mm 9 mps 756 mmHg 56%
    06:00 +9°C° 0 mm 10 mps 756 mmHg 55%
    07:00 +9°C° 0 mm 10 mps 757 mmHg 54%
    08:00 +11°C° 0 mm 10 mps 757 mmHg 48%
    09:00 +12°C° 0 mm 11 mps 757 mmHg 43%
    10:00 +13°C° 0 mm 12 mps 757 mmHg 37%
    11:00 +13°C° 0 mm 12 mps 757 mmHg 35%
    12:00 +14°C° 0 mm 12 mps 757 mmHg 33%
    13:00 +14°C° 0 mm 12 mps 757 mmHg 31%
    14:00 +14°C° 0 mm 12 mps 757 mmHg 32%
    15:00 +14°C° 0 mm 12 mps 757 mmHg 32%
    16:00 +13°C° 0 mm 12 mps 757 mmHg 33%
    17:00 +12°C° 0 mm 11 mps 758 mmHg 36%
    18:00 +11°C° 0 mm 10 mps 758 mmHg 40%
    19:00 +9°C° 0 mm 10 mps 759 mmHg 43%
    20:00 +9°C° 0 mm 10 mps 759 mmHg 45%
    21:00 +9°C° 0 mm 10 mps 760 mmHg 46%
    22:00 +8°C° 0 mm 10 mps 760 mmHg 48%
    23:00 +8°C° 0 mm 9 mps 760 mmHg 50%

    19 August, Saturday

    Time Temperature Precipitation Wind Pressure Humidity
    00:00 +8°C° 0 mm 9 mps 760 mmHg 52%
    01:00 +7°C° 0 mm 9 mps 760 mmHg 53%
    02:00 +7°C° 0 mm 9 mps 760 mmHg 55%
    03:00 +7°C° 0 mm 9 mps 760 mmHg 56%
    04:00 +6°C° 0 mm 9 mps 760 mmHg 58%
    05:00 +6°C° 0 mm 9 mps 761 mmHg 57%
    06:00 +6°C° 0 mm 9 mps 762 mmHg 56%
    07:00 +6°C° 0 mm 9 mps 762 mmHg 54%
    08:00 +7°C° 0.2 mm 9 mps 763 mmHg 48%
    09:00 +9°C° 0.2 mm 10 mps 763 mmHg 42%
    10:00 +11°C° 0.2 mm 10 mps 763 mmHg 36%
    11:00 +12°C° 0.3 mm 10 mps 763 mmHg 34%
    12:00 +13°C° 0.3 mm 10 mps 763 mmHg 32%
    13:00 +14°C° 0.3 mm 10 mps 763 mmHg 29%
    14:00 +14°C° 0.2 mm 10 mps 763 mmHg 30%
    15:00 +15°C° 0.2 mm 9 mps 763 mmHg 31%
    16:00 +15°C° 0.2 mm 9 mps 763 mmHg 31%
    17:00 +12°C° 0.1 mm 9 mps 764 mmHg 35%
    18:00 +11°C° 0.1 mm 8 mps 765 mmHg 39%
    19:00 +10°C° 0.1 mm 8 mps 765 mmHg 43%
    20:00 +9°C° 0 mm 8 mps 766 mmHg 45%
    21:00 +7°C° 0 mm 8 mps 766 mmHg 48%
    22:00 +6°C° 0 mm 8 mps 767 mmHg 50%
    23:00 +6°C° 0 mm 8 mps 766 mmHg 50%

    20 August, Sunday

    Time Temperature Precipitation Wind Pressure Humidity
    00:00 +5°C° 0 mm 8 mps 766 mmHg 51%
    01:00 +5°C° 0 mm 7 mps 766 mmHg 51%
    02:00 +4°C° 0 mm 7 mps 766 mmHg 52%
    03:00 +4°C° 0 mm 7 mps 766 mmHg 54%
    04:00 +4°C° 0 mm 7 mps 766 mmHg 56%
    05:00 +3°C° 0 mm 7 mps 766 mmHg 57%
    06:00 +3°C° 0 mm 6 mps 766 mmHg 58%
    07:00 +3°C° 0 mm 6 mps 766 mmHg 60%
    08:00 +5°C° 0 mm 6 mps 766 mmHg 51%
    09:00 +9°C° 0 mm 6 mps 766 mmHg 43%
    10:00 +13°C° 0 mm 6 mps 766 mmHg 35%
    11:00 +14°C° 0 mm 5 mps 765 mmHg 31%
    12:00 +16°C° 0 mm 5 mps 765 mmHg 28%
    13:00 +17°C° 0 mm 5 mps 764 mmHg 25%
    14:00 +18°C° 0 mm 4 mps 764 mmHg 26%
    15:00 +18°C° 0 mm 4 mps 763 mmHg 28%
    16:00 +17°C° 0 mm 4 mps 763 mmHg 29%
    17:00 +14°C° 0 mm 4 mps 764 mmHg 39%
    18:00 +12°C° 0 mm 4 mps 764 mmHg 50%
    19:00 +10°C° 0 mm 3 mps 764 mmHg 60%
    20:00 +9°C° 0 mm 3 mps 764 mmHg 63%
    21:00 +9°C° 0 mm 3 mps 764 mmHg 66%
    22:00 +8°C° 0 mm 2 mps 764 mmHg 68%
    23:00 +8°C° 0 mm 2 mps 764 mmHg 70%

    21 August, Monday

    Time Temperature Precipitation Wind Pressure Humidity
    00:00 +7°C° 0 mm 2 mps 764 mmHg 71%
    01:00 +7°C° 0 mm 2 mps 763 mmHg 72%
    02:00 +7°C° 0 mm 2 mps 763 mmHg 71%
    03:00 +7°C° 0 mm 2 mps 763 mmHg 70%
    04:00 +6°C° 0 mm 2 mps 763 mmHg 69%
    05:00 +7°C° 0 mm 2 mps 763 mmHg 67%
    06:00 +7°C° 0 mm 2 mps 763 mmHg 65%
    07:00 +7°C° 0 mm 2 mps 763 mmHg 63%
    08:00 +9°C° 0 mm 2 mps 763 mmHg 60%
    09:00 +10°C° 0 mm 2 mps 763 mmHg 57%
    10:00 +12°C° 0 mm 2 mps 763 mmHg 54%
    11:00 +13°C° 0 mm 2 mps 762 mmHg 52%
    12:00 +12°C° 0 mm 3 mps 762 mmHg 50%
    13:00 +13°C° 0 mm 3 mps 761 mmHg 49%
    14:00 +13°C° 0.1 mm 3 mps 761 mmHg 50%
    15:00 +13°C° 0.1 mm 3 mps 761 mmHg 51%
    16:00 +13°C° 0.1 mm 3 mps 761 mmHg 52%
    17:00 +12°C° 0.1 mm 3 mps 761 mmHg 60%
    18:00 +11°C° 0.1 mm 3 mps 762 mmHg 68%
    19:00 +10°C° 0.1 mm 3 mps 762 mmHg 75%
    20:00 +9°C° 0.2 mm 3 mps 763 mmHg 78%
    21:00 +9°C° 0.2 mm 3 mps 763 mmHg 81%
    22:00 +9°C° 0.2 mm 3 mps 763 mmHg 85%
    23:00 +8°C° 0 mm 3 mps 763 mmHg 86%
    Show more